Project,Study,Ord_Occ,Event_Num,Cast_ID,Date_Time_UTC,Date_Time_PST,Lat_Dec,Lon_Dec,Sta_ID,Line,Sta,Depth,Pressure,PrQ,Temp1,Temp1Q,Temp2,Temp2Q,TempAve,Salt1,Salt1Q,Salt1_Corr,Salt2,Salt2Q,Salt2_Corr,SaltAve_Corr,Ox1,Ox1Q,Ox1_CruiseCorr,Ox1_StaCorr,Ox2,Ox2Q,Ox2_CruiseCorr,Ox2_StaCorr,OxAve_StaCorr,Ox1uM,Ox1uM_CruiseCorr,Ox1uM_StaCorr,Ox2uM,Ox2uM_CruiseCorr,Ox2uM_StaCorr,OxAveuM_StaCorr,FluorV,FluorQ,EstChl_CruiseCorr,EstChl_StaCorr,ISUSV,ISUSQ,EstNO3_CruiseCorr,EstNO3_StaCorr,SigThetaTS1,SigThetaTS1Q,SigThetaTS2,SigThetaTS2Q,BAT,XMiss,TransQ,pH,pHQ,SPAR,SPARQ,PAR,PARQ,PoT1,PoT2,DynHt,SVA,OxSat1,OxSat2,BTL_Depth,BTL_Temp,SaltB,OxB,OxBuM,Chl-a,Phaeo,NO3,NO2,NH4,PO4,SIL
CalCOFI,2007SR,039,41,2007_039d,20-Jul-2020 06:36:12,19-Jul-2020 22:36:12,33.32136,-119.66130,086.7 050.0,086.7,050.0,2.000,2.014,,17.6643,,17.6668,,17.6656,33.7237,,33.7239,33.7236,,33.7252,33.7246,5.3883,,5.6125,5.6641,4.1598,,5.9895,4.2443,4.9542,234.916,244.7407,247.2781,181.354,409.0262,185.7214,216.4998,0.3480,,3.6910,2.1733,-99.0,,-99.0,-99.0,24.3764,,24.3757,,1.0010,77.8600,,8.182,,1.9043E+00,,7.6745E-01,,17.6640,17.6665,0.0006,,98.922,76.371,2,17.651,33.7303,5.669,247.49,2.260,0.550,0.77,0.032,0.09,0.23,2.55
CalCOFI,2007SR,039,41,2007_039d,20-Jul-2020 06:36:31,19-Jul-2020 22:36:31,33.32136,-119.66130,086.7 050.0,086.7,050.0,3.000,3.021,,17.6570,,17.6537,,17.6554,33.7246,,33.7248,33.7249,,33.7265,33.7257,5.3898,,5.6141,5.6657,4.1611,,5.9926,4.2471,4.9564,234.978,244.8054,247.3449,181.413,409.1778,185.8527,216.5988,0.3409,,3.6063,2.1251,-99.0,,-99.0,-99.0,24.3789,,24.3799,,0.9982,77.9155,,8.185,,1.9043E+00,,6.0672E-01,,17.6565,17.6532,0.0138,,98.936,76.378,,,,,,,,,,,,
CalCOFI,2007SR,039,41,2007_039d,20-Jul-2020 06:36:40,19-Jul-2020 22:36:40,33.32136,-119.66130,086.7 050.0,086.7,050.0,4.000,4.029,,17.6698,,17.6706,,17.6702,33.7251,,33.7253,33.7255,,33.7271,33.7262,5.3875,,5.6117,5.6632,4.1609,,5.9921,4.2467,4.9550,234.878,244.7010,247.2372,181.404,408.9332,185.8327,216.5350,0.3290,,3.4644,2.0444,-99.0,,-99.0,-99.0,24.3763,,24.3763,,0.9973,77.9334,,8.186,,1.9043E+00,,5.2735E-01,,17.6692,17.6700,0.0189,,98.918,76.399,,,,,,,,,,,,
CalCOFI,2007SR,039,41,2007_039d,20-Jul-2020 06:36:43,19-Jul-2020 22:36:43,33.32136,-119.66131,086.7 050.0,086.7,050.0,5.000,5.036,,17.6808,,17.6817,,17.6813,33.7248,,33.7250,33.7250,,33.7266,33.7258,5.3840,,5.6080,5.6594,4.1620,,5.9947,4.2491,4.9543,234.728,244.5445,247.0755,181.454,408.5664,185.9439,216.5097,0.3576,,3.8055,2.2385,-99.0,,-99.0,-99.0,24.3734,,24.3733,,0.9886,78.1036,,8.186,,1.9043E+00,,4.8423E-01,,17.6800,17.6808,0.0226,,98.875,76.435,,,,,,,,,,,,
CalCOFI,2007SR,039,41,2007_039d,20-Jul-2020 06:36:46,19-Jul-2020 22:36:46,33.32136,-119.66132,086.7 050.0,086.7,050.0,6.000,6.043,,17.6815,,17.6761,,17.6788,33.7247,,33.7249,33.7243,,33.7259,33.7254,5.3891,,5.6134,5.6649,4.1639,,5.9993,4.2533,4.9591,234.951,244.7772,247.3158,181.534,409.1118,186.1220,216.7189,0.3498,,3.7124,2.1855,-99.0,,-99.0,-99.0,24.3732,,24.3742,,0.9989,77.9017,,8.187,,1.9043E+00,,4.5760E-01,,17.6805,17.6751,0.0262,,98.970,76.461,,,,,,,,,,,,
CalCOFI,2007SR,039,41,2007_039d,20-Jul-2020 06:36:47,19-Jul-2020 22:36:47,33.32136,-119.66131,086.7 050.0,086.7,050.0,7.000,7.050,,17.6743,,17.6736,,17.6740,33.7245,,33.7247,33.7242,,33.7258,33.7253,5.3927,,5.6171,5.6688,4.1662,,6.0048,4.2584,4.9636,235.106,244.9391,247.4829,181.634,409.4909,186.3446,216.9138,0.3547,,3.7709,2.2188,-99.0,,-99.0,-99.0,24.3748,,24.3747,,0.9977,77.9240,,8.186,,1.9043E+00,,4.4837E-01,,17.6731,17.6724,0.0297,,99.021,76.499,7,17.522,33.7250,5.650,246.63,2.427,0.322,0.69,0.029,0.08,0.20,2.35
CalCOFI,2007SR,039,41,2007_039d,20-Jul-2020 06:36:49,19-Jul-2020 22:36:49,33.32136,-119.66131,086.7 050.0,086.7,050.0,8.000,8.057,,17.6588,,17.6541,,17.6565,33.7245,,33.7247,33.7248,,33.7264,33.7256,5.3883,,5.6125,5.6641,4.1658,,6.0038,4.2575,4.9608,234.915,244.7397,247.2770,181.617,409.0237,186.3067,216.7919,0.3366,,3.5550,2.0959,-99.0,,-99.0,-99.0,24.3786,,24.3800,,0.9987,77.9044,,8.186,,1.9043E+00,,4.2869E-01,,17.6575,17.6528,0.0333,,98.912,76.464,,,,,,,,,,,,
CalCOFI,2007SR,039,41,2007_039d,20-Jul-2020 06:36:52,19-Jul-2020 22:36:52,33.32136,-119.66132,086.7 050.0,086.7,050.0,9.000,9.064,,17.6533,,17.6521,,17.6527,33.7243,,33.7245,33.7247,,33.7263,33.7254,5.3573,,5.5801,5.6307,4.1675,,6.0079,4.2613,4.9460,233.563,243.3283,245.8199,181.693,405.7169,186.4759,216.1479,0.3622,,3.8604,2.2697,-99.0,,-99.0,-99.0,24.3798,,24.3804,,0.9972,77.9339,,8.185,,1.9043E+00,,4.0504E-01,,17.6518,17.6505,0.0369,,98.332,76.493,,,,,,,,,,,,
CalCOFI,2007SR,039,41,2007_039d,20-Jul-2020 06:36:54,19-Jul-2020 22:36:54,33.32136,-119.66132,086.7 050.0,086.7,050.0,10.000,10.072,,17.6298,,17.6441,,17.6370,33.7234,,33.7236,33.7219,,33.7235,33.7236,4.9733,,5.1789,5.2167,4.2074,,6.1031,4.3496,4.7832,216.821,225.8513,227.7766,183.430,364.7684,190.3418,209.0592,0.3850,,4.1327,2.4244,-99.0,,-99.0,-99.0,24.3848,,24.3803,,0.9959,77.9600,,8.184,,1.9043E+00,,3.9142E-01,,17.6281,17.6424,0.0404,,91.245,77.211,,,,,,,,,,,,
CalCOFI,2007SR,039,41,2007_039d,20-Jul-2020 06:36:56,19-Jul-2020 22:36:56,33.32136,-119.66132,086.7 050.0,086.7,050.0,11.000,11.079,,17.4763,,17.3992,,17.4378,33.7149,,33.7151,33.7056,,33.7072,33.7112,4.6679,,4.8598,4.8875,4.2355,,6.1702,4.4118,4.6497,203.499,211.9445,213.4191,184.648,332.1847,193.0527,203.2359,0.4526,,4.9420,2.8831,-99.0,,-99.0,-99.0,24.4152,,24.4265,,1.0180,77.5304,,8.183,,1.9043E+00,,3.8213E-01,,17.4745,17.3973,0.0440,,85.381,77.358,,,,,,,,,,,,
CalCOFI,2007SR,039,41,2007_039d,20-Jul-2020 06:36:57,19-Jul-2020 22:36:57,33.32136,-119.66132,086.7 050.0,086.7,050.0,12.000,12.086,,16.3118,,16.1225,,16.2172,33.6646,,33.6648,33.6311,,33.6327,33.6488,4.9259,,5.1294,5.1656,4.3028,,6.3309,4.5607,4.8632,214.696,223.6331,225.4864,187.537,359.5709,199.4826,212.4845,0.4517,,4.9312,2.8770,-99.0,,-99.0,-99.0,24.6470,,24.6643,,1.0168,77.5553,,8.170,,1.9043E+00,,3.6507E-01,,16.3099,16.1206,0.0475,,88.053,76.615,12,14.035,,5.246,229.02,2.684,0.514,4.14,0.085,0.22,0.51,5.27
CalCOFI,2007SR,039,41,2007_039d,20-Jul-2020 06:37:00,19-Jul-2020 22:37:00,33.32136,-119.66132,086.7 050.0,086.7,050.0,13.000,13.093,,15.7470,,16.1451,,15.9461,33.7286,,33.7288,33.7267,,33.7283,33.7286,4.5561,,4.7430,4.7670,4.3274,,6.3896,4.6151,4.6911,198.544,206.7720,208.0789,188.598,320.0655,201.8441,204.9615,0.2950,,3.0596,1.8136,-99.0,,-99.0,-99.0,24.8264,,24.7341,,0.9579,78.7068,,8.123,,1.9043E+00,,3.5018E-01,,15.7450,16.1430,0.0506,,80.569,77.143,,,,,,,,,,,,
CalCOFI,2007SR,039,41,2007_039d,20-Jul-2020 06:37:03,19-Jul-2020 22:37:03,33.32136,-119.66132,086.7 050.0,086.7,050.0,14.000,14.100,,14.8949,,14.8632,,14.8791,33.6822,,33.6824,33.6766,,33.6782,33.6803,4.5587,,4.7457,4.7698,4.4054,,6.5758,4.7877,4.7788,198.629,206.8607,208.1705,191.951,320.2734,209.3067,208.7386,0.2970,,3.0834,1.8272,-99.0,,-99.0,-99.0,24.9794,,24.9820,,0.8694,80.4642,,8.109,,1.9043E+00,,3.3719E-01,,14.8928,14.8611,0.0538,,79.270,76.554,,,,,,,,,,,,
CalCOFI,2007SR,039,41,2007_039d,20-Jul-2020 06:37:04,19-Jul-2020 22:37:04,33.32136,-119.66132,086.7 050.0,086.7,050.0,15.000,15.107,,14.8314,,14.8193,,14.8254,33.6833,,33.6835,33.6848,,33.6864,33.6850,4.4878,,4.6716,4.6933,4.3974,,6.5567,4.7700,4.7317,195.539,203.6351,204.8403,191.600,312.7157,208.5255,206.6829,0.2917,,3.0203,1.7913,-99.0,,-99.0,-99.0,24.9939,,24.9977,,0.8641,80.5714,,8.097,,1.9043E+00,,3.3224E-01,,14.8291,14.8171,0.0567,,77.939,76.351,,,,,,,,,,,,
CalCOFI,2007SR,039,41,2007_039d,20-Jul-2020 06:37:06,19-Jul-2020 22:37:06,33.32136,-119.66132,086.7 050.0,086.7,050.0,16.000,16.115,,14.6930,,14.6536,,14.6733,33.6753,,33.6755,33.6746,,33.6762,33.6759,4.3786,,4.5575,4.5756,4.4000,,6.5629,4.7757,4.6757,190.778,198.6651,199.7093,191.704,301.0709,208.7570,204.2332,0.3052,,3.1810,1.8829,-99.0,,-99.0,-99.0,25.0175,,25.0254,,0.8573,80.7088,,8.085,,1.9043E+00,,3.3451E-01,,14.6907,14.6513,0.0597,,75.829,76.137,,,,,,,,,,,,
CalCOFI,2007SR,039,41,2007_039d,20-Jul-2020 06:37:08,19-Jul-2020 22:37:08,33.32136,-119.66132,086.7 050.0,086.7,050.0,17.000,17.122,,14.2446,,14.1993,,14.2220,33.6591,,33.6593,33.6543,,33.6559,33.6576,4.3113,,4.4872,4.5031,4.4208,,6.6126,4.8218,4.6625,187.828,195.5855,196.5300,192.597,293.8556,210.7445,203.6373,0.2409,,2.4169,1.4465,-99.0,,-99.0,-99.0,25.1001,,25.1059,,0.8426,81.0056,,8.074,,1.9043E+00,,3.3804E-01,,14.2421,14.1969,0.0626,,73.988,75.791,,,,,,,,,,,,
CalCOFI,2007SR,039,41,2007_039d,20-Jul-2020 06:37:10,19-Jul-2020 22:37:10,33.32136,-119.66132,086.7 050.0,086.7,050.0,18.000,18.129,,13.8330,,13.8346,,13.8338,33.6563,,33.6565,33.6542,,33.6558,33.6562,4.1364,,4.3044,4.3145,4.4413,,6.6615,4.8671,4.5908,180.195,187.6175,188.3037,193.477,275.1864,212.7031,200.5034,0.2277,,2.2603,1.3569,-99.0,,-99.0,-99.0,25.1839,,25.1819,,0.8156,81.5546,,8.059,,1.9043E+00,,3.0954E-01,,13.8305,13.8320,0.0655,,70.393,75.583,,,,,,,,,,,,
CalCOFI,2007SR,039,41,2007_039d,20-Jul-2020 06:37:12,19-Jul-2020 22:37:12,33.32136,-119.66132,086.7 050.0,086.7,050.0,19.000,19.136,,13.2825,,13.1672,,13.2249,33.6272,,33.6274,33.6191,,33.6207,33.6241,4.0871,,4.2529,4.2614,4.4761,,6.7446,4.9441,4.6028,178.028,185.3553,185.9682,194.974,269.8862,216.0349,201.0016,0.1528,,1.3741,0.8487,-99.0,,-99.0,-99.0,25.2732,,25.2901,,0.7757,82.3720,,8.045,,1.9043E+00,,2.8560E-01,,13.2799,13.1646,0.0682,,68.763,75.126,,,,,,,,,,,,
CalCOFI,2007SR,039,41,2007_039d,20-Jul-2020 06:37:14,19-Jul-2020 22:37:14,33.32136,-119.66132,086.7 050.0,086.7,050.0,20.000,20.144,,12.8088,,12.7372,,12.7730,33.6284,,33.6286,33.6316,,33.6332,33.6309,4.0441,,4.2080,4.2150,4.4872,,6.7711,4.9687,4.5919,176.143,183.3876,183.9367,195.437,265.2758,217.0654,200.5011,0.1452,,1.2843,0.7971,-99.0,,-99.0,-99.0,25.3685,,25.3851,,0.7503,82.8974,,8.026,,1.9043E+00,,2.6772E-01,,12.8061,12.7345,0.0709,,67.381,74.652,,,,,,,,,,,,
CalCOFI,2007SR,039,41,2007_039d,20-Jul-2020 06:37:16,19-Jul-2020 22:37:16,33.32136,-119.66132,086.7 050.0,086.7,050.0,21.000,21.151,,12.4571,,12.4061,,12.4316,33.6328,,33.6330,33.6367,,33.6383,33.6357,3.8336,,3.9880,3.9881,4.5026,,6.8079,5.0028,4.4955,166.963,173.8046,174.0431,196.095,242.8228,218.5299,196.2865,0.1325,,1.1345,0.7109,-99.0,,-99.0,-99.0,25.4405,,25.4534,,0.7243,83.4383,,8.006,,1.9043E+00,,2.3251E-01,,12.4544,12.4033,0.0735,,63.412,74.397,,,,,,,,,,,,
CalCOFI,2007SR,039,41,2007_039d,20-Jul-2020 06:37:18,19-Jul-2020 22:37:18,33.32136,-119.66132,086.7 050.0,086.7,050.0,22.000,22.158,,12.1946,,12.1158,,12.1552,33.6321,,33.6323,33.6286,,33.6302,33.6313,3.6021,,3.7461,3.7386,4.4945,,6.7885,4.9849,4.3618,156.870,163.2685,163.1656,195.731,218.1368,217.7197,190.4427,0.1010,,0.7631,0.4971,-99.0,,-99.0,-99.0,25.4903,,25.5025,,0.7092,83.7520,,7.988,,1.9043E+00,,2.0181E-01,,12.1918,12.1130,0.0760,,59.254,73.810,22,11.133,33.7106,3.571,155.86,0.285,0.173,17.28,0.039,0.00,1.44,16.80
CalCOFI,2007SR,039,41,2007_039d,20-Jul-2020 06:37:20,19-Jul-2020 22:37:20,33.32136,-119.66132,086.7 050.0,086.7,050.0,23.000,23.165,,11.5638,,11.4959,,11.5299,33.6562,,33.6564,33.6669,,33.6685,33.6625,3.5927,,3.7363,3.7284,4.5095,,6.8243,5.0180,4.3732,156.442,162.8217,162.7043,196.359,217.0900,219.1174,190.9109,0.0732,,0.4359,0.3085,-99.0,,-99.0,-99.0,25.6273,,25.6481,,0.6836,84.2893,,7.969,,1.9043E+00,,1.8398E-01,,11.5609,11.4931,0.0784,,58.330,73.114,,,,,,,,,,,,
CalCOFI,2007SR,039,41,2007_039d,20-Jul-2020 06:37:21,19-Jul-2020 22:37:21,33.32136,-119.66132,086.7 050.0,086.7,050.0,24.000,24.172,,11.4007,,11.3871,,11.3939,33.6739,,33.6741,33.6778,,33.6794,33.6768,3.5688,,3.7113,3.7027,4.4853,,6.7666,4.9645,4.3336,155.393,161.7267,161.5738,195.299,214.5242,216.7582,189.1660,0.0738,,0.4430,0.3126,-99.0,,-99.0,-99.0,25.6711,,25.6766,,0.6832,84.2991,,7.953,,1.9043E+00,,1.5976E-01,,11.3977,11.3841,0.0808,,57.748,72.559,,,,,,,,,,,,
CalCOFI,2007SR,039,41,2007_039d,20-Jul-2020 06:37:23,19-Jul-2020 22:37:23,33.32136,-119.66132,086.7 050.0,086.7,050.0,25.000,25.180,,11.3600,,11.4323,,11.3962,33.6870,,33.6872,33.6891,,33.6907,33.6890,3.4671,,3.6051,3.5930,4.4493,,6.6806,4.8848,4.2389,150.964,157.1032,156.8005,193.731,203.6915,213.2684,185.0345,0.0688,,0.3842,0.2786,-99.0,,-99.0,-99.0,25.6887,,25.6771,,0.6808,84.3486,,7.936,,1.9043E+00,,1.3279E-01,,11.3569,11.4292,0.0831,,56.060,72.051,,,,,,,,,,,,
CalCOFI,2007SR,039,41,2007_039d,20-Jul-2020 06:37:26,19-Jul-2020 22:37:26,33.32136,-119.66132,086.7 050.0,086.7,050.0,26.000,26.187,,11.1743,,11.2784,,11.2264,33.7056,,33.7058,33.6900,,33.6916,33.6987,3.3119,,3.4429,3.4257,4.4100,,6.5868,4.7979,4.1118,144.199,150.0412,149.5097,192.015,187.1453,209.4492,179.4795,0.0657,,0.3477,0.2576,-99.0,,-99.0,-99.0,25.7368,,25.7057,,0.6687,84.6056,,7.919,,1.9043E+00,,8.7213E-02,,11.1711,11.2752,0.0854,,53.344,71.182,,,,,,,,,,,,
CalCOFI,2007SR,039,41,2007_039d,20-Jul-2020 06:37:28,19-Jul-2020 22:37:28,33.32136,-119.66132,086.7 050.0,086.7,050.0,27.000,27.194,,10.9702,,10.9690,,10.9696,33.7310,,33.7312,33.7335,,33.7351,33.7332,3.3141,,3.4452,3.4281,4.3911,,6.5417,4.7561,4.0921,144.284,150.1300,149.6013,191.174,187.3532,207.5774,178.5894,0.0567,,0.2419,0.1965,-99.0,,-99.0,-99.0,25.7932,,25.7954,,0.6668,84.6456,,7.906,,1.9043E+00,,5.8194E-02,,10.9670,10.9657,0.0877,,53.156,70.430,,,,,,,,,,,,
CalCOFI,2007SR,039,41,2007_039d,20-Jul-2020 06:37:30,19-Jul-2020 22:37:30,33.32136,-119.66132,086.7 050.0,086.7,050.0,28.000,28.201,,10.9445,,10.9486,,10.9466,33.7365,,33.7367,33.7390,,33.7406,33.7387,3.3092,,3.4401,3.4228,4.3526,,6.4498,4.6709,4.0469,144.070,149.9066,149.3707,189.499,186.8298,203.8494,176.6101,0.0571,,0.2466,0.1992,-99.0,,-99.0,-99.0,25.8022,,25.8034,,0.6676,84.6270,,7.896,,1.9043E+00,,2.9836E-02,,10.9411,10.9453,0.0899,,53.050,69.786,,,,,,,,,,,,
CalCOFI,2007SR,039,41,2007_039d,20-Jul-2020 06:37:32,19-Jul-2020 22:37:32,33.32136,-119.66132,086.7 050.0,086.7,050.0,29.000,29.209,,10.9351,,10.9392,,10.9372,33.7405,,33.7407,33.7441,,33.7457,33.7432,3.2982,,3.4286,3.4110,4.2998,,6.3237,4.5540,3.9825,143.594,149.4097,148.8577,187.199,185.6656,198.7304,173.7941,0.0584,,0.2619,0.2081,-99.0,,-99.0,-99.0,25.8069,,25.8090,,0.6656,84.6695,,7.886,,1.9043E+00,,-1.780E-03,,10.9316,10.9356,0.0921,,52.866,68.927,,,,,,,,,,,,
CalCOFI,2007SR,039,41,2007_039d,20-Jul-2020 06:37:34,19-Jul-2020 22:37:34,33.32136,-119.66132,086.7 050.0,086.7,050.0,30.000,30.216,,10.9297,,10.9366,,10.9332,33.7432,,33.7434,33.7449,,33.7465,33.7450,3.2938,,3.4240,3.4062,4.2680,,6.2478,4.4837,3.9450,143.400,149.2072,148.6486,185.811,185.1911,195.6411,172.1449,0.0554,,0.2267,0.1877,-99.0,,-99.0,-99.0,25.8100,,25.8102,,0.6657,84.6686,,7.882,,1.9043E+00,,1.0000E-12,,10.9261,10.9329,0.0943,,52.789,68.413,,,,,,,,,,,,
CalCOFI,2007SR,039,41,2007_039d,20-Jul-2020 06:37:37,19-Jul-2020 22:37:37,33.32136,-119.66132,086.7 050.0,086.7,050.0,31.000,31.223,,10.9346,,10.9269,,10.9308,33.7454,,33.7456,33.7485,,33.7501,33.7479,3.2837,,3.4134,3.3953,4.2134,,6.1174,4.3629,3.8791,142.962,148.7499,148.1765,183.436,184.1198,190.3552,169.2659,0.0552,,0.2243,0.1863,-99.0,,-99.0,-99.0,25.8109,,25.8147,,0.6644,84.6956,,7.875,,1.9043E+00,,1.0000E-12,,10.9309,10.9232,0.0965,,52.635,67.526,,,,,,,,,,,,
CalCOFI,2007SR,039,41,2007_039d,20-Jul-2020 06:37:39,19-Jul-2020 22:37:39,33.32136,-119.66132,086.7 050.0,086.7,050.0,32.000,32.231,,10.9253,,10.9311,,10.9282,33.7460,,33.7462,33.7480,,33.7496,33.7479,3.2762,,3.4056,3.3873,4.1790,,6.0353,4.2867,3.8370,142.632,148.4054,147.8209,181.938,183.3127,187.0211,167.4210,0.0550,,0.2220,0.1850,-99.0,,-99.0,-99.0,25.8131,,25.8136,,0.6645,84.6927,,7.872,,1.9043E+00,,1.0000E-12,,10.9214,10.9272,0.0987,,52.503,66.981,32,10.893,33.7464,3.416,149.11,0.203,0.181,18.39,0.041,0.00,1.53,18.47
CalCOFI,2007SR,039,41,2007_039d,20-Jul-2020 06:37:41,19-Jul-2020 22:37:41,33.32136,-119.66132,086.7 050.0,086.7,050.0,33.000,33.238,,10.9203,,10.9200,,10.9202,33.7471,,33.7473,33.7492,,33.7508,33.7491,3.2731,,3.4024,3.3839,4.1497,,5.9654,4.2219,3.8029,142.496,148.2635,147.6743,180.663,182.9800,184.1834,165.9289,0.0553,,0.2255,0.1870,-99.0,,-99.0,-99.0,25.8148,,25.8165,,0.6643,84.6982,,7.868,,1.9043E+00,,1.0000E-12,,10.9163,10.9160,0.1009,,52.448,66.496,,,,,,,,,,,,
CalCOFI,2007SR,039,41,2007_039d,20-Jul-2020 06:37:44,19-Jul-2020 22:37:44,33.32136,-119.66132,086.7 050.0,086.7,050.0,34.000,34.245,,10.9146,,10.9126,,10.9136,33.7480,,33.7482,33.7506,,33.7522,33.7502,3.2592,,3.3878,3.3689,4.1027,,5.8532,4.1179,3.7434,141.893,147.6340,147.0244,178.614,181.5052,179.6230,163.3237,0.0542,,0.2126,0.1796,-99.0,,-99.0,-99.0,25.8165,,25.8189,,0.6660,84.6619,,7.865,,1.9043E+00,,1.0000E-12,,10.9104,10.9085,0.1031,,52.220,65.732,,,,,,,,,,,,
CalCOFI,2007SR,039,41,2007_039d,20-Jul-2020 06:37:46,19-Jul-2020 22:37:46,33.32136,-119.66132,086.7 050.0,086.7,050.0,35.000,35.252,,10.9103,,10.9134,,10.9119,33.7484,,33.7486,33.7504,,33.7520,33.7503,3.2511,,3.3794,3.3602,4.0769,,5.7916,4.0608,3.7105,141.540,147.2655,146.6440,177.491,180.6418,177.1236,161.8838,0.0550,,0.2220,0.1850,-99.0,,-99.0,-99.0,25.8176,,25.8186,,0.6642,84.6994,,7.862,,1.9043E+00,,1.0000E-12,,10.9061,10.9092,0.1053,,52.085,65.320,,,,,,,,,,,,
CalCOFI,2007SR,039,41,2007_039d,20-Jul-2020 06:37:48,19-Jul-2020 22:37:48,33.32136,-119.66132,086.7 050.0,086.7,050.0,36.000,36.260,,10.8996,,10.9036,,10.9016,33.7493,,33.7495,33.7510,,33.7526,33.7511,3.2338,,3.3613,3.3416,4.0557,,5.7410,4.0139,3.6778,140.785,146.4774,145.8303,176.570,178.7952,175.0738,160.4521,0.0548,,0.2196,0.1836,-99.0,,-99.0,-99.0,25.8203,,25.8209,,0.6664,84.6537,,7.860,,1.9043E+00,,1.0000E-12,,10.8953,10.8992,0.1074,,51.796,64.968,,,,,,,,,,,,
CalCOFI,2007SR,039,41,2007_039d,20-Jul-2020 06:37:50,19-Jul-2020 22:37:50,33.32136,-119.66132,086.7 050.0,086.7,050.0,37.000,37.267,,10.8828,,10.8919,,10.8874,33.7506,,33.7508,33.7518,,33.7534,33.7521,3.2214,,3.3483,3.3282,4.0375,,5.6975,3.9736,3.6509,140.246,145.9147,145.2494,175.773,177.4768,173.2999,159.2747,0.0552,,0.2243,0.1863,-99.0,,-99.0,-99.0,25.8243,,25.8237,,0.6645,84.6936,,7.857,,1.9043E+00,,1.0000E-12,,10.8783,10.8874,0.1096,,51.580,64.659,,,,,,,,,,,,
CalCOFI,2007SR,039,41,2007_039d,20-Jul-2020 06:37:52,19-Jul-2020 22:37:52,33.32136,-119.66132,086.7 050.0,086.7,050.0,38.000,38.274,,10.8445,,10.8488,,10.8467,33.7550,,33.7552,33.7576,,33.7592,33.7572,3.2236,,3.3506,3.3306,4.0158,,5.6457,3.9256,3.6281,140.340,146.0128,145.3507,174.830,177.7068,171.2011,158.2759,0.0533,,0.2020,0.1735,-99.0,,-99.0,-99.0,25.8346,,25.8358,,0.6640,84.7039,,7.856,,1.9043E+00,,1.0000E-12,,10.8400,10.8442,0.1118,,51.574,64.256,,,,,,,,,,,,
CalCOFI,2007SR,039,41,2007_039d,20-Jul-2020 06:37:55,19-Jul-2020 22:37:55,33.32136,-119.66132,086.7 050.0,086.7,050.0,39.000,39.282,,10.8457,,10.8414,,10.8436,33.7555,,33.7557,33.7591,,33.7607,33.7582,3.2196,,3.3465,3.3262,3.9855,,5.5734,3.8586,3.5924,140.167,145.8322,145.1643,173.507,177.2836,168.2566,156.7105,0.0540,,0.2102,0.1782,-99.0,,-99.0,-99.0,25.8347,,25.8383,,0.6654,84.6740,,7.851,,1.9043E+00,,1.0000E-12,,10.8410,10.8367,0.1140,,51.512,63.760,,,,,,,,,,,,
CalCOFI,2007SR,039,41,2007_039d,20-Jul-2020 06:37:57,19-Jul-2020 22:37:57,33.32136,-119.66132,086.7 050.0,086.7,050.0,40.000,40.289,,10.8474,,10.8484,,10.8479,33.7545,,33.7547,33.7562,,33.7578,33.7563,3.2016,,3.3277,3.3068,3.9647,,5.5237,3.8126,3.5597,139.381,145.0117,144.3172,172.605,175.3612,166.2491,155.2832,0.0528,,0.1961,0.1701,-99.0,,-99.0,-99.0,25.8337,,25.8348,,0.6643,84.6984,,7.851,,1.9043E+00,,1.0000E-12,,10.8426,10.8436,0.1162,,51.225,63.437,,,,,,,,,,,,
CalCOFI,2007SR,039,41,2007_039d,20-Jul-2020 06:38:00,19-Jul-2020 22:38:00,33.32136,-119.66132,086.7 050.0,086.7,050.0,41.000,41.296,,10.8272,,10.8341,,10.8307,33.7558,,33.7560,33.7570,,33.7586,33.7573,3.1515,,3.2753,3.2528,3.9463,,5.4798,3.7718,3.5123,137.201,142.7360,141.9677,171.804,170.0292,164.4663,153.2170,0.0528,,0.1961,0.1701,-99.0,,-99.0,-99.0,25.8383,,25.8380,,0.6640,84.7053,,7.848,,1.9043E+00,,1.0000E-12,,10.8223,10.8292,0.1184,,50.402,63.124,,,,,,,,,,,,
CalCOFI,2007SR,039,41,2007_039d,20-Jul-2020 06:38:02,19-Jul-2020 22:38:02,33.32136,-119.66132,086.7 050.0,086.7,050.0,42.000,42.304,,10.7794,,10.7903,,10.7849,33.7614,,33.7616,33.7613,,33.7629,33.7623,3.0995,,3.2210,3.1968,3.9377,,5.4593,3.7528,3.4748,134.936,140.3716,139.5267,171.427,164.4893,163.6272,151.5770,0.0522,,0.1891,0.1660,-99.0,,-99.0,-99.0,25.8511,,25.8492,,0.6627,84.7310,,7.847,,1.9043E+00,,1.0000E-12,,10.7744,10.7852,0.1205,,49.522,62.929,42,10.640,33.7801,3.184,138.98,0.178,0.135,19.52,0.038,0.00,1.62,20.25
CalCOFI,2007SR,039,41,2007_039d,20-Jul-2020 06:38:04,19-Jul-2020 22:38:04,33.32136,-119.66132,086.7 050.0,086.7,050.0,43.000,43.311,,10.6590,,10.6521,,10.6556,33.7768,,33.7770,33.7780,,33.7796,33.7783,3.0732,,3.1935,3.1684,3.9342,,5.4509,3.7451,3.4568,133.788,139.1732,138.2894,171.269,161.6815,163.2756,150.7825,0.0483,,0.1432,0.1395,-99.0,,-99.0,-99.0,25.8844,,25.8865,,0.6619,84.7489,,7.842,,1.9043E+00,,1.0000E-12,,10.6538,10.6469,0.1227,,48.980,62.693,,,,,,,,,,,,
CalCOFI,2007SR,039,41,2007_039d,20-Jul-2020 06:38:06,19-Jul-2020 22:38:06,33.32136,-119.66132,086.7 050.0,086.7,050.0,44.000,44.318,,10.6130,,10.5656,,10.5893,33.7784,,33.7786,33.7868,,33.7884,33.7835,2.9306,,3.0445,3.0147,3.9202,,5.4175,3.7141,3.3644,127.577,132.6895,131.5957,170.656,146.4903,161.9112,146.7535,0.0479,,0.1385,0.1368,-99.0,,-99.0,-99.0,25.8936,,25.9085,,0.6623,84.7400,,7.836,,1.9043E+00,,1.0000E-12,,10.6078,10.5604,0.1248,,46.661,62.358,,,,,,,,,,,,
CalCOFI,2007SR,039,41,2007_039d,20-Jul-2020 06:38:08,19-Jul-2020 22:38:08,33.32136,-119.66132,086.7 050.0,086.7,050.0,45.000,45.326,,10.3873,,10.4096,,10.3985,33.8106,,33.8108,33.8081,,33.8097,33.8103,2.8944,,3.0067,2.9757,3.9128,,5.3998,3.6977,3.3367,125.992,131.0349,129.8875,170.326,142.6136,161.1768,145.5322,0.0450,,0.1045,0.1171,-99.0,,-99.0,-99.0,25.9580,,25.9522,,0.6614,84.7595,,7.831,,1.9043E+00,,1.0000E-12,,10.3821,10.4043,0.1269,,45.870,62.039,,,,,,,,,,,,
CalCOFI,2007SR,039,41,2007_039d,20-Jul-2020 06:38:10,19-Jul-2020 22:38:10,33.32136,-119.66131,086.7 050.0,086.7,050.0,46.000,46.333,,10.3250,,10.3358,,10.3304,33.8214,,33.8216,33.8210,,33.8226,33.8221,2.8899,,3.0020,2.9708,3.9039,,5.3786,3.6780,3.3244,125.795,130.8293,129.6752,169.934,142.1318,160.3043,144.9898,0.0434,,0.0857,0.1063,-99.0,,-99.0,-99.0,25.9772,,25.9750,,0.6623,84.7412,,7.827,,1.9043E+00,,1.0000E-12,,10.3196,10.3304,0.1289,,45.741,61.804,,,,,,,,,,,,
CalCOFI,2007SR,039,41,2007_039d,20-Jul-2020 06:38:12,19-Jul-2020 22:38:12,33.32136,-119.66131,086.7 050.0,086.7,050.0,47.000,47.340,,10.2751,,10.2671,,10.2711,33.8266,,33.8268,33.8304,,33.8320,33.8294,2.8318,,2.9412,2.9082,3.8883,,5.3413,3.6435,3.2759,123.264,128.1872,126.9474,169.252,135.9413,158.7864,142.8669,0.0428,,0.0786,0.1022,-99.0,,-99.0,-99.0,25.9898,,25.9942,,0.6617,84.7537,,7.820,,1.9043E+00,,1.0000E-12,,10.2696,10.2616,0.1310,,44.774,61.470,,,,,,,,,,,,
CalCOFI,2007SR,039,41,2007_039d,20-Jul-2020 06:38:15,19-Jul-2020 22:38:15,33.32136,-119.66131,086.7 050.0,086.7,050.0,48.000,48.348,,10.1526,,10.1655,,10.1591,33.8424,,33.8426,33.8414,,33.8430,33.8428,2.7423,,2.8477,2.8117,3.8656,,5.2871,3.5933,3.2025,119.364,124.1160,122.7443,168.259,126.4024,156.5763,139.6603,0.0418,,0.0669,0.0954,-99.0,,-99.0,-99.0,26.0231,,26.0201,,0.6613,84.7612,,7.814,,1.9043E+00,,1.0000E-12,,10.1471,10.1600,0.1330,,43.248,60.981,,,,,,,,,,,,
CalCOFI,2007SR,039,41,2007_039d,20-Jul-2020 06:38:17,19-Jul-2020 22:38:17,33.32136,-119.66130,086.7 050.0,086.7,050.0,49.000,49.355,,10.0343,,10.0351,,10.0347,33.8609,,33.8611,33.8625,,33.8641,33.8626,2.7088,,2.8127,2.7756,3.8490,,5.2475,3.5565,3.1661,117.902,122.5898,121.1686,167.532,122.8266,154.9583,138.0635,0.0375,,0.0164,0.0662,-99.0,,-99.0,-99.0,26.0576,,26.0588,,0.6615,84.7568,,7.808,,1.9043E+00,,1.0000E-12,,10.0287,10.0295,0.1350,,42.616,60.556,,,,,,,,,,,,